Wilmington, NC

12:01 PM EST on February 06, 2016 (GMT -0500)
Wilmington International

Weather History for KILM - May, 2013

Change the Weather History Date:

Thursday, May 2, 2013

  Actual Average Record
Temperature  
Mean Temperature 64 °F 67 °F  
Max Temperature 70 °F 78 °F 91 °F (1962)
Min Temperature 57 °F 56 °F 35 °F (1963)
Degree Days  
Heating Degree Days 1 2  
Month to date heating degree days 1 4  
Since 1 July heating degree days 2414 2386  
Cooling Degree Days 0 4  
Month to date cooling degree days 2 8  
Year to date cooling degree days 64 96  
Growing Degree Days 14 (Base 50)    
Moisture  
Dew Point 59 °F    
Average Humidity 83    
Maximum Humidity 97    
Minimum Humidity 68    
Precipitation  
Precipitation 0.02 in 0.11 in 2.03 in (1873)
Month to date precipitation 0.10 0.22  
Year to date precipitation 15.51 14.63  
Sea Level Pressure  
Sea Level Pressure 30.23 in    
Wind  
Wind Speed 11 mph (NE)    
Max Wind Speed 20 mph    
Max Gust Speed 29 mph    
Visibility 8 miles    
Events Rain    
T = Trace of Precipitation, MM = Missing Value Source: NWS Daily Summary

Daily Weather History Graph

Daily Weather History Graph

Search for Another Location

Airport or City:

Trip Planner

Search our weather history database for the weather conditions in past years. The results will help you decide how hot, cold, wet, or windy it might be!

Date:

Astronomy

May. 02, 2013 Rise Set
Actual Time 6:20 AM EDT 7:56 PM EDT
Civil Twilight 5:53 AM EDT 8:23 PM EDT
Nautical Twilight 5:21 AM EDT 8:56 PM EDT
Astronomical Twilight 4:47 AM EDT 9:30 PM EDT
Moon 1:47 AM EDT (5/2) 1:02 PM EDT (5/2)
Length of Visible Light 14h 29m
Length of Day
13h 36m
Waning Gibbous, 48% of the Moon is Illuminated
May 2
Waning Gibbous
May 9
New
May 18
First Quarter
May 25
Full
May 31
Last Quarter

Hourly Weather History & Observations

Time (EDT) Temp. Dew Point Humidity Pressure Visibility Wind Dir Wind Speed Gust Speed Precip Events Conditions
12:00 AM 62.6 °F 60.8 °F 94% 30.23 in 10.0 mi ENE 10.4 mph - N/A   Mostly Cloudy
12:53 AM 62.1 °F 60.1 °F 93% 30.23 in 10.0 mi NE 10.4 mph - N/A   Mostly Cloudy
1:53 AM 62.1 °F 60.1 °F 93% 30.22 in 10.0 mi NE 10.4 mph - N/A   Overcast
2:18 AM 62.6 °F 60.8 °F 94% 30.22 in 10.0 mi NE 11.5 mph - N/A   Overcast
2:53 AM 62.1 °F 60.1 °F 93% 30.22 in 9.0 mi NE 12.7 mph - N/A   Overcast
3:12 AM 62.6 °F 60.8 °F 94% 30.21 in 9.0 mi NE 11.5 mph - 0.00 in Rain Light Rain
3:45 AM 60.8 °F 59.0 °F 94% 30.22 in 10.0 mi NNE 10.4 mph - 0.00 in   Overcast
3:53 AM 61.0 °F 59.0 °F 93% 30.22 in 10.0 mi NNE 11.5 mph - 0.00 in   Overcast
4:53 AM 60.1 °F 57.9 °F 93% 30.22 in 9.0 mi NE 8.1 mph - N/A   Overcast
5:53 AM 60.1 °F 57.9 °F 93% 30.22 in 10.0 mi NNE 11.5 mph - N/A   Overcast
6:53 AM 60.1 °F 57.9 °F 93% 30.23 in 9.0 mi NE 15.0 mph - N/A   Overcast
7:53 AM 61.0 °F 59.0 °F 93% 30.23 in 10.0 mi NE 12.7 mph - N/A   Overcast
8:53 AM 62.1 °F 59.0 °F 90% 30.25 in 10.0 mi NE 11.5 mph - N/A   Overcast
9:31 AM 64.4 °F 60.8 °F 88% 30.25 in 10.0 mi NNE 13.8 mph - N/A   Overcast
9:53 AM 66.0 °F 60.1 °F 81% 30.25 in 10.0 mi NNE 11.5 mph - N/A   Mostly Cloudy
10:30 AM 69.8 °F 60.8 °F 73% 30.25 in 10.0 mi NE 12.7 mph - N/A   Mostly Cloudy
10:53 AM 69.1 °F 61.0 °F 75% 30.25 in 10.0 mi NNE 12.7 mph - N/A   Mostly Cloudy
11:53 AM 69.1 °F 60.1 °F 73% 30.25 in 10.0 mi East 11.5 mph 23.0 mph N/A   Overcast
12:53 PM 66.9 °F 60.1 °F 79% 30.25 in 10.0 mi ENE 16.1 mph 23.0 mph 0.00 in   Overcast
1:18 PM 66.2 °F 62.6 °F 88% 30.26 in 2.5 mi East 9.2 mph 18.4 mph 0.00 in Rain Light Rain
1:31 PM 64.4 °F 60.8 °F 88% 30.26 in 4.0 mi ENE 13.8 mph - 0.00 in Rain Light Rain
1:53 PM 64.9 °F 61.0 °F 87% 30.26 in 3.0 mi ENE 16.1 mph 21.9 mph 0.00 in Rain Light Rain
2:27 PM 64.4 °F 60.8 °F 88% 30.26 in 2.5 mi ENE 10.4 mph 25.3 mph 0.00 in Rain Light Rain
2:37 PM 62.6 °F 60.8 °F 94% 30.26 in 1.8 mi ENE 12.7 mph 24.2 mph 0.00 in Rain Light Rain
2:45 PM 62.6 °F 60.8 °F 94% 30.26 in 1.2 mi ENE 12.7 mph 21.9 mph 0.00 in Rain Light Rain
2:53 PM 63.0 °F 61.0 °F 93% 30.26 in 1.0 mi ENE 11.5 mph 25.3 mph 0.01 in Rain Light Rain
3:04 PM 62.6 °F 60.8 °F 94% 30.25 in 2.0 mi ENE 9.2 mph 19.6 mph 0.01 in Rain Light Rain
3:07 PM 62.6 °F 60.8 °F 94% 30.25 in 3.0 mi ENE 10.4 mph 18.4 mph 0.01 in Rain Light Rain
3:09 PM 64.4 °F 60.8 °F 88% 30.25 in 4.0 mi ENE 8.1 mph 18.4 mph 0.01 in Rain Light Rain
3:53 PM 64.9 °F 61.0 °F 87% 30.24 in 10.0 mi ENE 10.4 mph 23.0 mph 0.01 in   Overcast
4:53 PM 66.0 °F 57.9 °F 75% 30.22 in 10.0 mi NE 8.1 mph - N/A   Overcast
5:53 PM 66.9 °F 57.9 °F 73% 30.20 in 10.0 mi ENE 9.2 mph - N/A   Overcast
6:53 PM 66.9 °F 57.0 °F 70% 30.19 in 10.0 mi East 4.6 mph - N/A   Partly Cloudy
7:53 PM 66.0 °F 55.0 °F 68% 30.21 in 10.0 mi ENE 9.2 mph - N/A   Overcast
8:53 PM 64.0 °F 55.0 °F 73% 30.22 in 10.0 mi ENE 13.8 mph 19.6 mph N/A   Overcast
9:53 PM 63.0 °F 54.0 °F 72% 30.22 in 10.0 mi ENE 11.5 mph - N/A   Mostly Cloudy
10:53 PM 59.0 °F 54.0 °F 83% 30.21 in 10.0 mi NNE 8.1 mph - N/A   Clear
11:53 PM 57.9 °F 53.1 °F 84% 30.19 in 10.0 mi NE 13.8 mph - N/A   Clear